Time,TemperatureF,DewpointF,PressureIn,WindDirection,WindDirectionDegrees,WindSpeedMPH,WindSpeedGustMPH,Humidity,HourlyPrecipIn,Conditions,Clouds,dailyrainin,SolarRadiationWatts/m^2,SoftwareType,DateUTC
2013-07-06 00:01:00,77.7,70.7,30.10,SW,221,0.0,0.0,79,0.00,CLR,,0.00,0.0,WeatherDisplay:10.37,2013-07-06 04:01:00,
2013-07-06 00:02:00,77.7,70.7,30.10,SW,221,0.0,0.0,79,0.00,CLR,,0.00,0.0,WeatherDisplay:10.37,2013-07-06 04:02:00,
2013-07-06 00:03:00,77.6,70.6,30.11,SW,221,0.0,0.0,79,0.00,CLR,,0.00,0.0,WeatherDisplay:10.37,2013-07-06 04:03:00,
2013-07-06 00:08:00,77.6,70.9,30.11,SW,220,1.3,3.5,80,0.00,CLR,,0.00,0.0,WeatherDisplay:10.37,2013-07-06 04:08:00,
2013-07-06 00:13:00,77.4,70.7,30.11,SW,220,0.2,1.5,80,0.00,FEW,,0.00,0.0,WeatherDisplay:10.37,2013-07-06 04:13:00,
2013-07-06 00:18:00,77.2,70.5,30.11,SW,220,0.1,1.2,80,0.00,FEW,,0.00,0.0,WeatherDisplay:10.37,2013-07-06 04:18:00,
2013-07-06 00:23:00,77.2,70.5,30.11,SW,220,0.1,1.5,80,0.00,FEW,,0.00,0.0,WeatherDisplay:10.37,2013-07-06 04:23:00,
2013-07-06 00:28:00,77.2,70.5,30.11,SSW,198,2.1,6.0,80,0.00,FEW,,0.00,0.0,WeatherDisplay:10.37,2013-07-06 04:28:00,
2013-07-06 00:33:00,77.2,70.5,30.11,SSW,198,0.2,1.5,80,0.00,FEW,,0.00,0.0,WeatherDisplay:10.37,2013-07-06 04:33:00,
2013-07-06 00:38:00,77.2,70.5,30.11,SSW,198,0.0,0.0,80,0.00,FEW,,0.00,0.0,WeatherDisplay:10.37,2013-07-06 04:38:00,
2013-07-06 00:43:00,77.2,70.5,30.10,SSW,200,2.8,5.8,80,0.00,FEW,,0.00,0.0,WeatherDisplay:10.37,2013-07-06 04:43:00,
2013-07-06 00:48:00,77.2,70.5,30.11,SSW,200,0.0,0.0,80,0.00,FEW,,0.00,0.0,WeatherDisplay:10.37,2013-07-06 04:48:00,
2013-07-06 00:53:00,77.0,70.4,30.11,SSW,200,0.0,0.0,80,0.00,FEW,,0.00,0.0,WeatherDisplay:10.37,2013-07-06 04:53:00,
2013-07-06 00:58:00,77.0,70.4,30.11,SSW,200,0.0,0.0,80,0.00,FEW,,0.00,0.0,WeatherDisplay:10.37,2013-07-06 04:58:00,
2013-07-06 01:03:00,76.8,70.2,30.10,SSW,200,0.0,0.0,80,0.00,CLR,,0.00,0.0,WeatherDisplay:10.37,2013-07-06 05:03:00,
2013-07-06 01:08:00,76.8,70.2,30.10,SSW,199,0.0,1.2,80,0.00,CLR,,0.00,0.0,WeatherDisplay:10.37,2013-07-06 05:08:00,
2013-07-06 01:13:00,76.8,70.2,30.10,SSW,201,2.8,5.8,80,0.00,CLR,,0.00,0.0,WeatherDisplay:10.37,2013-07-06 05:13:00,
2013-07-06 01:18:00,76.8,70.2,30.10,SSW,201,0.0,0.0,80,0.00,CLR,,0.00,0.0,WeatherDisplay:10.37,2013-07-06 05:18:00,
2013-07-06 01:23:00,76.7,70.1,30.10,SSW,201,0.0,0.0,80,0.00,CLR,,0.00,0.0,WeatherDisplay:10.37,2013-07-06 05:23:00,
2013-07-06 01:28:00,76.5,70.2,30.10,SSW,201,0.0,0.0,81,0.00,CLR,,0.00,0.0,WeatherDisplay:10.37,2013-07-06 05:28:00,
2013-07-06 01:33:00,76.5,70.2,30.10,SSW,201,0.0,0.0,81,0.00,CLR,,0.00,0.0,WeatherDisplay:10.37,2013-07-06 05:33:00,
2013-07-06 01:38:00,76.3,70.0,30.10,SSW,201,0.0,0.0,81,0.00,CLR,,0.00,0.0,WeatherDisplay:10.37,2013-07-06 05:38:00,
2013-07-06 01:43:00,76.1,69.8,30.10,SSW,201,0.0,0.0,81,0.00,CLR,,0.00,0.0,WeatherDisplay:10.37,2013-07-06 05:43:00,
2013-07-06 01:48:00,75.8,69.9,30.10,SSW,201,0.0,0.0,82,0.00,CLR,,0.00,0.0,WeatherDisplay:10.37,2013-07-06 05:48:00,
2013-07-06 01:53:00,75.6,69.7,30.10,SSW,201,0.0,0.0,82,0.00,CLR,,0.00,0.0,WeatherDisplay:10.37,2013-07-06 05:53:00,
2013-07-06 01:58:00,75.6,70.1,30.10,SSW,201,0.0,0.0,83,0.00,CLR,,0.00,0.0,WeatherDisplay:10.37,2013-07-06 05:58:00,
2013-07-06 02:03:00,75.4,69.9,30.10,SSW,201,0.0,0.0,83,0.00,CLR,,0.00,0.0,WeatherDisplay:10.37,2013-07-06 06:03:00,
2013-07-06 02:08:00,75.4,69.9,30.10,SSW,201,0.0,0.0,83,0.00,CLR,,0.00,0.0,WeatherDisplay:10.37,2013-07-06 06:08:00,
2013-07-06 02:13:00,75.3,70.1,30.10,SSW,201,0.0,0.0,84,0.00,CLR,,0.00,0.0,WeatherDisplay:10.37,2013-07-06 06:13:00,
2013-07-06 02:18:00,75.3,70.1,30.10,SSW,201,0.0,0.0,84,0.00,CLR,,0.00,0.0,WeatherDisplay:10.37,2013-07-06 06:18:00,
2013-07-06 02:23:00,75.1,69.9,30.10,SSW,201,0.0,0.0,84,0.00,CLR,,0.00,0.0,WeatherDisplay:10.37,2013-07-06 06:23:00,
2013-07-06 02:28:00,75.1,69.9,30.10,SSW,201,0.0,0.0,84,0.00,CLR,,0.00,0.0,WeatherDisplay:10.37,2013-07-06 06:28:00,
2013-07-06 02:33:00,75.1,70.3,30.10,SSW,201,0.0,0.0,85,0.00,CLR,,0.00,0.0,WeatherDisplay:10.37,2013-07-06 06:33:00,
2013-07-06 02:38:00,74.9,70.1,30.10,SSW,201,0.0,0.0,85,0.00,CLR,,0.00,0.0,WeatherDisplay:10.37,2013-07-06 06:38:00,
2013-07-06 02:43:00,74.9,70.1,30.10,SSW,201,0.0,0.0,85,0.00,CLR,,0.00,0.0,WeatherDisplay:10.37,2013-07-06 06:43:00,
2013-07-06 02:48:00,74.7,69.9,30.10,SSW,201,0.0,0.0,85,0.00,CLR,,0.00,0.0,WeatherDisplay:10.37,2013-07-06 06:48:00,
2013-07-06 02:53:00,74.7,69.9,30.10,SSW,201,0.0,0.0,85,0.00,CLR,,0.00,0.0,WeatherDisplay:10.37,2013-07-06 06:53:00,
2013-07-06 02:58:00,74.6,69.8,30.10,SSW,201,0.0,0.0,85,0.00,CLR,,0.00,0.0,WeatherDisplay:10.37,2013-07-06 06:58:00,
2013-07-06 03:03:00,74.4,69.9,30.11,SSW,201,0.0,0.0,86,0.00,CLR,,0.00,0.0,WeatherDisplay:10.37,2013-07-06 07:03:00,
2013-07-06 03:08:00,74.4,69.9,30.10,SSW,201,0.0,0.0,86,0.00,CLR,,0.00,0.0,WeatherDisplay:10.37,2013-07-06 07:08:00,
2013-07-06 03:13:00,74.2,69.7,30.10,SSW,201,0.0,0.0,86,0.00,CLR,,0.00,0.0,WeatherDisplay:10.37,2013-07-06 07:13:00,
2013-07-06 03:18:00,74.0,69.5,30.10,SSW,201,0.0,0.0,86,0.00,CLR,,0.00,0.0,WeatherDisplay:10.37,2013-07-06 07:18:00,
2013-07-06 03:23:00,73.9,69.4,30.10,SSW,201,0.0,0.0,86,0.00,CLR,,0.00,0.0,WeatherDisplay:10.37,2013-07-06 07:23:00,
2013-07-06 03:28:00,73.7,69.2,30.11,SSW,201,0.0,0.0,86,0.00,CLR,,0.00,0.0,WeatherDisplay:10.37,2013-07-06 07:28:00,
2013-07-06 03:33:00,73.5,69.4,30.10,SSW,201,0.0,0.0,87,0.00,CLR,,0.00,0.0,WeatherDisplay:10.37,2013-07-06 07:33:00,
2013-07-06 03:38:00,73.2,69.1,30.10,SSW,201,0.0,0.0,87,0.00,CLR,,0.00,0.0,WeatherDisplay:10.37,2013-07-06 07:38:00,
2013-07-06 03:43:00,72.8,68.7,30.11,SSW,201,0.0,0.0,87,0.00,CLR,,0.00,0.0,WeatherDisplay:10.37,2013-07-06 07:43:00,
2013-07-06 03:48:00,72.5,68.7,30.11,SSW,201,0.0,0.0,88,0.00,CLR,,0.00,0.0,WeatherDisplay:10.37,2013-07-06 07:48:00,
2013-07-06 03:53:00,72.3,68.5,30.11,SSW,201,0.0,0.0,88,0.00,CLR,,0.00,0.0,WeatherDisplay:10.37,2013-07-06 07:53:00,
2013-07-06 03:58:00,72.1,68.3,30.11,SSW,201,0.0,0.0,88,0.00,CLR,,0.00,0.0,WeatherDisplay:10.37,2013-07-06 07:58:00,
2013-07-06 04:03:00,72.0,68.6,30.10,SSW,201,0.0,0.0,89,0.00,CLR,,0.00,0.0,WeatherDisplay:10.37,2013-07-06 08:03:00,
2013-07-06 04:08:00,71.8,68.4,30.11,SSW,201,0.1,1.2,89,0.00,CLR,,0.00,0.0,WeatherDisplay:10.37,2013-07-06 08:08:00,
2013-07-06 04:13:00,71.8,68.7,30.10,SSW,201,0.0,0.0,90,0.00,FEW,,0.00,0.0,WeatherDisplay:10.37,2013-07-06 08:13:00,
2013-07-06 04:18:00,71.6,68.5,30.11,SSW,201,0.0,0.0,90,0.00,FEW,,0.00,0.0,WeatherDisplay:10.37,2013-07-06 08:18:00,
2013-07-06 04:23:00,71.6,68.5,30.10,SSW,201,0.0,0.0,90,0.00,FEW,,0.00,0.0,WeatherDisplay:10.37,2013-07-06 08:23:00,
2013-07-06 04:28:00,71.3,68.5,30.10,SSW,201,0.0,0.0,91,0.00,FEW,,0.00,0.0,WeatherDisplay:10.37,2013-07-06 08:28:00,
2013-07-06 04:33:00,71.3,68.5,30.10,SSW,201,0.0,0.0,91,0.00,FEW,,0.00,0.0,WeatherDisplay:10.37,2013-07-06 08:33:00,
2013-07-06 04:38:00,70.9,68.1,30.10,SSW,201,0.0,0.0,91,0.00,FEW,,0.00,0.0,WeatherDisplay:10.37,2013-07-06 08:38:00,
2013-07-06 04:43:00,70.8,68.4,30.10,SSW,201,0.0,0.0,92,0.00,FEW,,0.00,0.0,WeatherDisplay:10.37,2013-07-06 08:43:00,
2013-07-06 04:48:00,70.4,68.0,30.11,SSW,201,0.0,0.0,92,0.00,FEW,,0.00,0.0,WeatherDisplay:10.37,2013-07-06 08:48:00,
2013-07-06 04:53:00,70.4,68.0,30.11,SSW,201,0.0,0.0,92,0.00,FEW,,0.00,0.0,WeatherDisplay:10.37,2013-07-06 08:53:00,
2013-07-06 04:58:00,70.3,67.9,30.11,SSW,201,0.0,0.0,92,0.00,FEW,,0.00,0.0,WeatherDisplay:10.37,2013-07-06 08:58:00,
2013-07-06 05:03:00,70.3,67.9,30.11,SSW,201,0.0,0.0,92,0.00,FEW,,0.00,0.0,WeatherDisplay:10.37,2013-07-06 09:03:00,
2013-07-06 05:08:00,70.1,68.0,30.11,SSW,201,0.0,0.0,93,0.00,FEW,,0.00,0.0,WeatherDisplay:10.37,2013-07-06 09:08:00,
2013-07-06 05:13:00,69.8,67.7,30.11,SSW,201,0.0,0.0,93,0.00,CLR,,0.00,0.0,WeatherDisplay:10.37,2013-07-06 09:13:00,
2013-07-06 05:18:00,69.8,67.7,30.12,SSW,201,0.0,0.0,93,0.00,CLR,,0.00,0.0,WeatherDisplay:10.37,2013-07-06 09:18:00,
2013-07-06 05:23:00,69.6,67.5,30.12,SSW,201,0.0,0.0,93,0.00,CLR,,0.00,0.0,WeatherDisplay:10.37,2013-07-06 09:23:00,
2013-07-06 05:28:00,69.4,67.6,30.12,SSW,201,0.0,0.0,94,0.00,CLR,,0.00,0.0,WeatherDisplay:10.37,2013-07-06 09:28:00,
2013-07-06 05:33:00,69.6,67.8,30.12,SSW,201,0.0,0.0,94,0.00,CLR,,0.00,0.0,WeatherDisplay:10.37,2013-07-06 09:33:00,
2013-07-06 05:38:00,69.6,67.8,30.12,SSW,201,0.0,0.0,94,0.00,CLR,,0.00,0.0,WeatherDisplay:10.37,2013-07-06 09:38:00,
2013-07-06 05:43:00,69.4,67.6,30.12,SSW,201,0.0,0.0,94,0.00,CLR,,0.00,0.0,WeatherDisplay:10.37,2013-07-06 09:43:00,
2013-07-06 05:48:00,69.4,67.9,30.12,SSW,201,0.0,0.0,95,0.00,CLR,,0.00,0.0,WeatherDisplay:10.37,2013-07-06 09:48:00,
2013-07-06 05:53:00,69.4,67.9,30.13,SSW,201,0.0,0.0,95,0.00,CLR,,0.00,0.0,WeatherDisplay:10.37,2013-07-06 09:53:00,
2013-07-06 05:58:00,69.9,68.4,30.13,SSW,201,0.0,0.0,95,0.00,CLR,,0.00,5.0,WeatherDisplay:10.37,2013-07-06 09:58:00,
2013-07-06 06:03:00,70.4,69.2,30.13,SSW,201,0.1,1.2,96,0.00,CLR,,0.00,7.0,WeatherDisplay:10.37,2013-07-06 10:03:00,
2013-07-06 06:08:00,70.6,69.4,30.13,SSW,201,0.0,0.0,96,0.00,CLR,,0.00,11.0,WeatherDisplay:10.37,2013-07-06 10:08:00,
2013-07-06 06:13:00,70.6,69.1,30.13,SSW,201,0.0,0.0,95,0.00,CLR,,0.00,12.0,WeatherDisplay:10.37,2013-07-06 10:13:00,
2013-07-06 06:18:00,70.4,68.9,30.13,SSW,201,0.0,0.0,95,0.00,CLR,,0.00,14.0,WeatherDisplay:10.37,2013-07-06 10:18:00,
2013-07-06 06:23:00,70.3,68.8,30.13,SSW,201,0.0,0.0,95,0.00,CLR,,0.00,16.0,WeatherDisplay:10.37,2013-07-06 10:23:00,
2013-07-06 06:28:00,70.3,69.1,30.13,SSW,201,0.0,0.0,96,0.00,CLR,,0.00,19.0,WeatherDisplay:10.37,2013-07-06 10:28:00,
2013-07-06 06:33:00,70.6,69.4,30.13,SSW,201,0.0,0.0,96,0.00,CLR,,0.00,21.0,WeatherDisplay:10.37,2013-07-06 10:33:00,
2013-07-06 06:38:00,70.8,69.6,30.13,SSW,201,0.0,0.0,96,0.00,CLR,,0.00,23.0,WeatherDisplay:10.37,2013-07-06 10:38:00,
2013-07-06 06:43:00,71.1,69.9,30.13,SSW,201,0.0,0.0,96,0.00,CLR,,0.00,25.0,WeatherDisplay:10.37,2013-07-06 10:43:00,
2013-07-06 06:48:00,71.6,70.4,30.14,SSW,201,0.1,1.5,96,0.00,CLR,,0.00,33.0,WeatherDisplay:10.37,2013-07-06 10:48:00,
2013-07-06 06:53:00,72.0,70.8,30.14,SSW,200,1.6,3.5,96,0.00,CLR,,0.00,98.0,WeatherDisplay:10.37,2013-07-06 10:53:00,
2013-07-06 06:58:00,72.5,71.3,30.14,SSW,200,0.0,0.0,96,0.00,CLR,,0.00,113.0,WeatherDisplay:10.37,2013-07-06 10:58:00,
2013-07-06 07:03:00,72.7,71.5,30.14,SSW,202,2.1,4.6,96,0.00,CLR,,0.00,125.0,WeatherDisplay:10.37,2013-07-06 11:03:00,
2013-07-06 07:08:00,73.2,72.0,30.14,SSW,202,0.1,4.6,96,0.00,CLR,,0.00,144.0,WeatherDisplay:10.37,2013-07-06 11:08:00,
2013-07-06 07:13:00,73.3,71.5,30.14,SSW,203,1.0,6.0,94,0.00,FEW,,0.00,162.0,WeatherDisplay:10.37,2013-07-06 11:13:00,
2013-07-06 07:18:00,73.7,71.5,30.14,SSW,208,0.5,8.1,93,0.00,FEW,,0.00,179.0,WeatherDisplay:10.37,2013-07-06 11:18:00,
2013-07-06 07:23:00,74.2,71.7,30.14,SSW,209,1.1,4.5,92,0.00,FEW,,0.00,195.0,WeatherDisplay:10.37,2013-07-06 11:23:00,
2013-07-06 07:28:00,74.7,71.6,30.14,SSW,209,0.0,0.0,90,0.00,FEW,,0.00,214.0,WeatherDisplay:10.37,2013-07-06 11:28:00,
2013-07-06 07:33:00,75.1,71.3,30.14,SSW,210,1.3,3.5,88,0.00,FEW,,0.00,232.0,WeatherDisplay:10.37,2013-07-06 11:33:00,
2013-07-06 07:38:00,75.6,71.5,30.15,SSW,209,0.2,3.5,87,0.00,FEW,,0.00,246.0,WeatherDisplay:10.37,2013-07-06 11:38:00,
2013-07-06 07:43:00,76.0,71.2,30.14,SSW,211,0.6,4.6,85,0.00,FEW,,0.00,262.0,WeatherDisplay:10.37,2013-07-06 11:43:00,
2013-07-06 07:48:00,76.5,71.3,30.14,SSW,209,0.0,3.5,84,0.00,FEW,,0.00,276.0,WeatherDisplay:10.37,2013-07-06 11:48:00,
2013-07-06 07:53:00,76.8,70.9,30.14,SSW,205,0.3,3.5,82,0.00,FEW,,0.00,292.0,WeatherDisplay:10.37,2013-07-06 11:53:00,
2013-07-06 07:58:00,77.2,70.9,30.14,SSW,209,5.4,6.0,81,0.00,FEW,,0.00,304.0,WeatherDisplay:10.37,2013-07-06 11:58:00,
2013-07-06 08:03:00,77.6,71.3,30.14,SSW,208,1.9,6.0,81,0.00,FEW,,0.00,320.0,WeatherDisplay:10.37,2013-07-06 12:03:00,
2013-07-06 08:08:00,77.9,71.2,30.14,SSW,204,0.9,5.8,80,0.00,FEW,,0.00,334.0,WeatherDisplay:10.37,2013-07-06 12:08:00,
2013-07-06 08:13:00,77.9,70.9,30.14,SSW,200,2.6,4.6,79,0.00,FEW,,0.00,352.0,WeatherDisplay:10.37,2013-07-06 12:13:00,
2013-07-06 08:18:00,78.1,71.1,30.14,SW,219,4.8,7.5,79,0.00,FEW,,0.00,367.0,WeatherDisplay:10.37,2013-07-06 12:18:00,
2013-07-06 08:23:00,78.3,71.2,30.14,SW,221,0.5,5.8,79,0.00,FEW,,0.00,383.0,WeatherDisplay:10.37,2013-07-06 12:23:00,
2013-07-06 08:28:00,78.6,71.5,30.14,SW,226,6.8,9.2,79,0.00,FEW,,0.00,396.0,WeatherDisplay:10.37,2013-07-06 12:28:00,
2013-07-06 08:33:00,78.6,70.8,30.14,SW,230,6.5,8.1,77,0.00,FEW,,0.00,415.0,WeatherDisplay:10.37,2013-07-06 12:33:00,
2013-07-06 08:38:00,78.8,71.4,30.14,SW,217,8.3,10.5,78,0.00,FEW,,0.00,427.0,WeatherDisplay:10.37,2013-07-06 12:38:00,
2013-07-06 08:43:00,79.0,71.2,30.14,WSW,238,4.9,9.2,77,0.00,FEW,,0.00,441.0,WeatherDisplay:10.37,2013-07-06 12:43:00,
2013-07-06 08:48:00,79.2,71.4,30.14,SW,225,7.2,8.1,77,0.00,FEW,,0.00,457.0,WeatherDisplay:10.37,2013-07-06 12:48:00,
2013-07-06 08:53:00,79.6,71.8,30.14,SW,224,2.3,8.1,77,0.00,FEW,,0.00,469.0,WeatherDisplay:10.37,2013-07-06 12:53:00,
2013-07-06 08:58:00,79.9,71.7,30.14,SSE,152,6.7,10.4,76,0.00,FEW,,0.00,487.0,WeatherDisplay:10.37,2013-07-06 12:58:00,
2013-07-06 09:03:00,80.1,71.5,30.14,SW,230,8.4,9.0,75,0.00,FEW,,0.00,501.0,WeatherDisplay:10.37,2013-07-06 13:03:00,
2013-07-06 09:08:00,80.1,71.8,30.14,SW,232,3.3,8.1,76,0.00,FEW,,0.00,512.0,WeatherDisplay:10.37,2013-07-06 13:08:00,
2013-07-06 09:13:00,80.3,71.6,30.14,SW,219,1.9,5.8,75,0.00,CLR,,0.00,529.0,WeatherDisplay:10.37,2013-07-06 13:13:00,
2013-07-06 09:18:00,80.3,71.3,30.14,SW,223,5.1,8.1,74,0.00,CLR,,0.00,541.0,WeatherDisplay:10.37,2013-07-06 13:18:00,
2013-07-06 09:23:00,80.9,71.8,30.14,SSW,198,6.8,10.5,74,0.00,CLR,,0.00,555.0,WeatherDisplay:10.37,2013-07-06 13:23:00,
2013-07-06 09:28:00,81.1,72.0,30.14,SSE,155,2.3,6.0,74,0.00,CLR,,0.00,570.0,WeatherDisplay:10.37,2013-07-06 13:28:00,
2013-07-06 09:33:00,81.4,72.3,30.14,SW,219,2.8,8.1,74,0.00,CLR,,0.00,582.0,WeatherDisplay:10.37,2013-07-06 13:33:00,
2013-07-06 09:38:00,81.8,72.3,30.14,SSE,161,3.7,9.2,73,0.00,CLR,,0.00,596.0,WeatherDisplay:10.37,2013-07-06 13:38:00,
2013-07-06 09:43:00,82.0,72.1,30.14,SSW,203,3.3,7.5,72,0.00,CLR,,0.00,606.0,WeatherDisplay:10.37,2013-07-06 13:43:00,
2013-07-06 09:48:00,82.2,72.3,30.13,SW,232,5.8,7.5,72,0.00,CLR,,0.00,624.0,WeatherDisplay:10.37,2013-07-06 13:48:00,
2013-07-06 09:53:00,82.4,72.5,30.13,SE,136,3.4,6.0,72,0.00,CLR,,0.00,633.0,WeatherDisplay:10.37,2013-07-06 13:53:00,
2013-07-06 09:58:00,82.6,72.7,30.14,West,259,3.8,4.6,72,0.00,CLR,,0.00,647.0,WeatherDisplay:10.37,2013-07-06 13:58:00,
2013-07-06 10:03:00,82.6,72.2,30.14,South,186,3.9,5.8,71,0.00,CLR,,0.00,661.0,WeatherDisplay:10.37,2013-07-06 14:03:00,
2013-07-06 10:08:00,83.0,71.8,30.13,South,180,1.6,3.5,69,0.00,CLR,,0.00,671.0,WeatherDisplay:10.37,2013-07-06 14:08:00,
2013-07-06 10:13:00,83.4,71.7,30.13,SW,224,7.4,8.1,68,0.00,CLR,,0.00,680.0,WeatherDisplay:10.37,2013-07-06 14:13:00,
2013-07-06 10:18:00,83.4,72.2,30.13,SSE,161,3.9,7.5,69,0.00,CLR,,0.00,696.0,WeatherDisplay:10.37,2013-07-06 14:18:00,
2013-07-06 10:23:00,83.6,71.9,30.13,SE,144,4.1,9.2,68,0.00,CLR,,0.00,707.0,WeatherDisplay:10.37,2013-07-06 14:23:00,
2013-07-06 10:28:00,83.8,73.0,30.13,SSE,159,0.0,3.5,70,0.00,CLR,,0.00,719.0,WeatherDisplay:10.37,2013-07-06 14:28:00,
2013-07-06 10:33:00,84.0,72.3,30.13,West,267,4.6,8.1,68,0.00,CLR,,0.00,728.0,WeatherDisplay:10.37,2013-07-06 14:33:00,
2013-07-06 10:38:00,84.1,72.4,30.13,SSE,147,9.1,9.1,68,0.00,CLR,,0.00,740.0,WeatherDisplay:10.37,2013-07-06 14:38:00,
2013-07-06 10:43:00,84.3,71.7,30.13,SSE,161,0.0,1.5,66,0.00,CLR,,0.00,747.0,WeatherDisplay:10.37,2013-07-06 14:43:00,
2013-07-06 10:48:00,85.1,73.8,30.12,SW,236,6.3,9.0,69,0.00,CLR,,0.00,761.0,WeatherDisplay:10.37,2013-07-06 14:48:00,
2013-07-06 10:53:00,84.7,72.5,30.12,SSW,213,3.5,9.2,67,0.00,CLR,,0.00,770.0,WeatherDisplay:10.37,2013-07-06 14:53:00,
2013-07-06 10:58:00,84.9,72.7,30.12,SSW,213,1.6,4.5,67,0.00,CLR,,0.00,779.0,WeatherDisplay:10.37,2013-07-06 14:58:00,
2013-07-06 11:03:00,84.7,71.2,30.12,SSW,202,2.8,4.6,64,0.00,FEW,,0.00,788.0,WeatherDisplay:10.37,2013-07-06 15:03:00,
2013-07-06 11:08:00,84.9,72.3,30.12,SSW,203,6.2,9.2,66,0.00,FEW,,0.00,798.0,WeatherDisplay:10.37,2013-07-06 15:08:00,
2013-07-06 11:13:00,84.9,71.8,30.12,SW,219,3.8,6.0,65,0.00,FEW,,0.00,805.0,WeatherDisplay:10.37,2013-07-06 15:13:00,
2013-07-06 11:18:00,85.1,71.1,30.12,South,182,3.6,4.6,63,0.00,FEW,,0.00,816.0,WeatherDisplay:10.37,2013-07-06 15:18:00,
2013-07-06 11:23:00,85.3,72.2,30.12,SSE,166,0.2,9.2,65,0.00,FEW,,0.00,823.0,WeatherDisplay:10.37,2013-07-06 15:23:00,
2013-07-06 11:28:00,85.3,71.7,30.12,SW,229,7.2,8.1,64,0.00,FEW,,0.00,823.0,WeatherDisplay:10.37,2013-07-06 15:28:00,
2013-07-06 11:33:00,85.3,71.7,30.12,SW,229,2.0,4.6,64,0.00,FEW,,0.00,835.0,WeatherDisplay:10.37,2013-07-06 15:33:00,
2013-07-06 11:38:00,85.5,72.4,30.12,WSW,257,5.4,8.1,65,0.00,FEW,,0.00,846.0,WeatherDisplay:10.37,2013-07-06 15:38:00,
2013-07-06 11:43:00,85.5,71.9,30.12,SW,221,0.0,0.0,64,0.00,FEW,,0.00,872.0,WeatherDisplay:10.37,2013-07-06 15:43:00,
2013-07-06 11:48:00,86.1,73.4,30.12,SSW,204,3.0,8.1,66,0.00,FEW,,0.00,860.0,WeatherDisplay:10.37,2013-07-06 15:48:00,
2013-07-06 11:53:00,86.5,73.3,30.12,SW,235,0.9,3.5,65,0.00,FEW,,0.00,870.0,WeatherDisplay:10.37,2013-07-06 15:53:00,
2013-07-06 11:58:00,86.7,72.6,30.12,SSE,163,2.6,9.2,63,0.00,FEW,,0.00,870.0,WeatherDisplay:10.37,2013-07-06 15:58:00,
2013-07-06 12:04:00,86.5,70.0,30.12,SE,144,8.4,9.0,58,0.00,FEW,,0.00,877.0,WeatherDisplay:10.37,2013-07-06 16:04:00,
2013-07-06 12:09:00,86.5,70.5,30.12,SSE,152,2.0,4.6,59,0.00,FEW,,0.00,879.0,WeatherDisplay:10.37,2013-07-06 16:09:00,
2013-07-06 12:14:00,87.0,72.9,30.11,SSW,205,1.5,3.5,63,0.00,FEW,,0.00,884.0,WeatherDisplay:10.37,2013-07-06 16:14:00,
2013-07-06 12:19:00,87.0,70.9,30.11,SSE,161,4.4,10.4,59,0.00,FEW,,0.00,889.0,WeatherDisplay:10.37,2013-07-06 16:19:00,
2013-07-06 12:24:00,87.0,70.4,30.11,SSE,159,0.0,1.2,58,0.00,FEW,,0.00,900.0,WeatherDisplay:10.37,2013-07-06 16:24:00,
2013-07-06 12:29:00,87.4,71.8,30.11,SW,227,3.1,6.0,60,0.00,FEW,,0.00,909.0,WeatherDisplay:10.37,2013-07-06 16:29:00,
2013-07-06 12:35:00,87.4,71.3,30.11,SW,232,2.9,4.6,59,0.00,FEW,,0.00,935.0,WeatherDisplay:10.37,2013-07-06 16:35:00,
2013-07-06 12:40:00,87.6,72.0,30.11,SSE,157,3.2,6.0,60,0.00,FEW,,0.00,928.0,WeatherDisplay:10.37,2013-07-06 16:40:00,
2013-07-06 12:45:00,88.0,72.4,30.10,East,91,2.4,5.8,60,0.00,FEW,,0.00,914.0,WeatherDisplay:10.37,2013-07-06 16:45:00,
2013-07-06 12:51:00,88.4,74.2,30.10,SSE,153,3.8,8.1,63,0.00,FEW,,0.00,926.0,WeatherDisplay:10.37,2013-07-06 16:51:00,
2013-07-06 12:56:00,88.0,70.9,30.10,ESE,104,4.7,5.8,57,0.00,FEW,,0.00,121.0,WeatherDisplay:10.37,2013-07-06 16:56:00,
2013-07-06 13:02:00,87.6,72.5,30.10,ESE,117,2.9,4.6,61,0.00,FEW,,0.00,958.0,WeatherDisplay:10.37,2013-07-06 17:02:00,
2013-07-06 13:07:00,87.4,71.3,30.10,SSE,157,0.1,1.5,59,0.00,FEW,,0.00,153.0,WeatherDisplay:10.37,2013-07-06 17:07:00,
2013-07-06 13:14:00,87.6,70.5,30.09,South,188,2.1,10.5,57,0.00,FEW,,0.00,969.0,WeatherDisplay:10.37,2013-07-06 17:14:00,
2013-07-06 13:19:00,88.0,71.9,30.09,SW,221,1.7,4.5,59,0.00,FEW,,0.00,1025.0,WeatherDisplay:10.37,2013-07-06 17:19:00,
2013-07-06 13:26:00,88.0,71.9,30.08,SW,221,0.9,3.5,59,0.00,FEW,,0.00,287.0,WeatherDisplay:10.37,2013-07-06 17:26:00,
2013-07-06 13:31:00,88.4,72.7,30.08,East,96,4.4,6.0,60,0.00,FEW,,0.00,812.0,WeatherDisplay:10.37,2013-07-06 17:31:00,
2013-07-06 13:37:00,88.2,72.1,30.08,SW,230,0.0,0.0,59,0.00,FEW,,0.00,267.0,WeatherDisplay:10.37,2013-07-06 17:37:00,
2013-07-06 13:42:00,88.4,73.2,30.08,SW,232,8.0,9.2,61,0.00,FEW,,0.00,1065.0,WeatherDisplay:10.37,2013-07-06 17:42:00,
2013-07-06 13:48:00,88.2,72.1,30.08,SW,215,0.3,3.5,59,0.00,FEW,,0.00,1035.0,WeatherDisplay:10.37,2013-07-06 17:48:00,
2013-07-06 13:53:00,88.8,73.6,30.08,SSW,204,2.9,5.8,61,0.00,FEW,,0.00,1123.0,WeatherDisplay:10.37,2013-07-06 17:53:00,
2013-07-06 13:58:00,88.6,72.9,30.08,South,171,0.0,0.0,60,0.00,FEW,,0.00,251.0,WeatherDisplay:10.37,2013-07-06 17:58:00,
2013-07-06 14:03:00,89.0,73.8,30.07,SSE,165,1.7,4.5,61,0.00,SCT,,0.00,1116.0,WeatherDisplay:10.37,2013-07-06 18:03:00,
2013-07-06 14:08:00,89.0,72.3,30.07,South,173,1.8,4.6,58,0.00,SCT,,0.00,613.0,WeatherDisplay:10.37,2013-07-06 18:08:00,
2013-07-06 14:15:00,89.3,74.1,30.07,SE,138,1.1,4.6,61,0.00,SCT,,0.00,1009.0,WeatherDisplay:10.37,2013-07-06 18:15:00,
2013-07-06 14:20:00,89.0,71.3,30.07,SE,146,0.4,8.1,56,0.00,SCT,,0.00,204.0,WeatherDisplay:10.37,2013-07-06 18:20:00,
2013-07-06 14:25:00,88.2,71.0,30.07,SSW,211,0.1,8.1,57,0.00,SCT,,0.00,200.0,WeatherDisplay:10.37,2013-07-06 18:25:00,
2013-07-06 14:30:00,87.8,71.7,30.07,SSW,192,3.6,4.6,59,0.00,SCT,,0.00,288.0,WeatherDisplay:10.37,2013-07-06 18:30:00,
2013-07-06 14:36:00,88.2,72.6,30.07,East,98,3.9,8.1,60,0.00,SCT,,0.00,278.0,WeatherDisplay:10.37,2013-07-06 18:36:00,
2013-07-06 14:42:00,88.6,72.4,30.06,South,169,1.1,4.6,59,0.00,SCT,,0.00,974.0,WeatherDisplay:10.37,2013-07-06 18:42:00,
2013-07-06 14:48:00,89.3,73.1,30.06,ESE,107,0.2,5.8,59,0.00,SCT,,0.00,898.0,WeatherDisplay:10.37,2013-07-06 18:48:00,
2013-07-06 14:53:00,89.9,73.1,30.06,SSE,158,1.6,7.5,58,0.00,SCT,,0.00,942.0,WeatherDisplay:10.37,2013-07-06 18:53:00,
2013-07-06 14:58:00,89.9,71.6,30.06,SSE,157,6.4,13.8,55,0.00,SCT,,0.00,972.0,WeatherDisplay:10.37,2013-07-06 18:58:00,
2013-07-06 15:03:00,89.5,70.7,30.06,SE,146,7.4,10.5,54,0.00,BKN,,0.00,338.0,WeatherDisplay:10.37,2013-07-06 19:03:00,
2013-07-06 15:08:00,89.0,70.7,30.06,WSW,238,3.0,7.5,55,0.00,BKN,,0.00,264.0,WeatherDisplay:10.37,2013-07-06 19:08:00,
2013-07-06 15:14:00,89.7,72.4,30.05,South,188,2.9,15.0,57,0.00,BKN,,0.00,413.0,WeatherDisplay:10.37,2013-07-06 19:14:00,
2013-07-06 15:19:00,89.9,71.6,30.05,SSE,162,4.7,7.5,55,0.00,BKN,,0.00,905.0,WeatherDisplay:10.37,2013-07-06 19:19:00,
2013-07-06 15:24:00,89.7,70.3,30.05,SSE,153,13.4,13.8,53,0.00,BKN,,0.00,865.0,WeatherDisplay:10.37,2013-07-06 19:24:00,
2013-07-06 15:29:00,89.7,71.9,30.05,SSW,210,2.0,6.0,56,0.00,BKN,,0.00,719.0,WeatherDisplay:10.37,2013-07-06 19:29:00,
2013-07-06 15:35:00,89.0,71.8,30.05,SSE,161,5.8,8.1,57,0.00,BKN,,0.00,299.0,WeatherDisplay:10.37,2013-07-06 19:35:00,
2013-07-06 15:40:00,89.5,74.8,30.05,South,175,0.2,1.5,62,0.00,BKN,,0.00,997.0,WeatherDisplay:10.37,2013-07-06 19:40:00,
2013-07-06 15:45:00,90.1,72.8,30.05,SE,145,6.6,9.2,57,0.00,BKN,,0.00,868.0,WeatherDisplay:10.37,2013-07-06 19:45:00,
2013-07-06 15:51:00,90.5,74.2,30.05,SSE,163,3.8,6.0,59,0.00,BKN,,0.00,780.0,WeatherDisplay:10.37,2013-07-06 19:51:00,
2013-07-06 15:56:00,90.3,72.5,30.04,SW,218,3.9,10.5,56,0.00,BKN,,0.00,754.0,WeatherDisplay:10.37,2013-07-06 19:56:00,
2013-07-06 16:01:00,90.1,71.8,30.04,South,189,5.1,15.0,55,0.00,BKN,,0.00,737.0,WeatherDisplay:10.37,2013-07-06 20:01:00,
2013-07-06 16:08:00,90.3,73.0,30.04,SSE,159,3.7,8.1,57,0.00,BKN,,0.00,722.0,WeatherDisplay:10.37,2013-07-06 20:08:00,
2013-07-06 16:13:00,90.3,71.9,30.04,SE,146,1.3,4.6,55,0.00,BKN,,0.00,770.0,WeatherDisplay:10.37,2013-07-06 20:13:00,
2013-07-06 16:18:00,89.9,72.6,30.04,SSE,150,7.0,10.5,57,0.00,BKN,,0.00,218.0,WeatherDisplay:10.37,2013-07-06 20:18:00,
2013-07-06 16:23:00,89.5,72.8,30.03,South,178,3.8,18.4,58,0.00,BKN,,0.00,867.0,WeatherDisplay:10.37,2013-07-06 20:23:00,
2013-07-06 16:28:00,89.3,73.6,30.03,SSE,151,7.8,12.0,60,0.00,BKN,,0.00,751.0,WeatherDisplay:10.37,2013-07-06 20:28:00,
2013-07-06 16:33:00,89.9,72.6,30.03,South,178,4.5,9.2,57,0.00,BKN,,0.00,779.0,WeatherDisplay:10.37,2013-07-06 20:33:00,
2013-07-06 16:39:00,90.3,73.0,30.03,South,171,2.3,4.5,57,0.00,BKN,,0.00,791.0,WeatherDisplay:10.37,2013-07-06 20:39:00,
2013-07-06 16:44:00,90.3,74.0,30.03,SSE,148,7.5,9.0,59,0.00,BKN,,0.00,752.0,WeatherDisplay:10.37,2013-07-06 20:44:00,
2013-07-06 16:49:00,90.1,72.3,30.02,South,178,8.1,13.5,56,0.00,BKN,,0.00,677.0,WeatherDisplay:10.37,2013-07-06 20:49:00,
2013-07-06 16:55:00,90.1,72.8,30.02,SSW,200,3.5,6.0,57,0.00,BKN,,0.00,619.0,WeatherDisplay:10.37,2013-07-06 20:55:00,
2013-07-06 17:00:00,89.9,72.6,30.02,SSE,153,4.0,9.0,57,0.00,BKN,,0.00,598.0,WeatherDisplay:10.37,2013-07-06 21:00:00,
2013-07-06 17:05:00,89.9,72.6,30.02,SSW,194,3.9,13.8,57,0.00,BKN,,0.00,559.0,WeatherDisplay:10.37,2013-07-06 21:05:00,
2013-07-06 17:10:00,89.9,71.6,30.02,SW,225,13.3,21.0,55,0.00,BKN,,0.00,541.0,WeatherDisplay:10.37,2013-07-06 21:10:00,
2013-07-06 17:15:00,89.9,72.1,30.02,South,175,6.4,13.8,56,0.00,BKN,,0.00,527.0,WeatherDisplay:10.37,2013-07-06 21:15:00,
2013-07-06 17:22:00,89.7,71.9,30.02,SSE,155,8.3,15.0,56,0.00,BKN,,0.00,506.0,WeatherDisplay:10.37,2013-07-06 21:22:00,
2013-07-06 17:28:00,89.5,72.8,30.02,SW,234,5.7,9.2,58,0.00,BKN,,0.00,497.0,WeatherDisplay:10.37,2013-07-06 21:28:00,
2013-07-06 17:33:00,89.3,72.1,30.02,WSW,240,4.7,9.2,57,0.00,BKN,,0.00,471.0,WeatherDisplay:10.37,2013-07-06 21:33:00,
2013-07-06 17:39:00,89.3,71.5,30.02,SW,222,11.1,16.1,56,0.00,BKN,,0.00,454.0,WeatherDisplay:10.37,2013-07-06 21:39:00,
2013-07-06 17:44:00,89.0,71.3,30.01,SSW,210,11.4,12.0,56,0.00,BKN,,0.00,438.0,WeatherDisplay:10.37,2013-07-06 21:44:00,
2013-07-06 17:49:00,89.0,71.8,30.01,South,179,5.0,10.4,57,0.00,BKN,,0.00,422.0,WeatherDisplay:10.37,2013-07-06 21:49:00,
2013-07-06 17:55:00,88.8,72.1,30.01,SSE,158,7.0,9.0,58,0.00,BKN,,0.00,406.0,WeatherDisplay:10.37,2013-07-06 21:55:00,
2013-07-06 18:01:00,88.6,72.4,30.01,South,171,3.3,8.1,59,0.00,SCT,,0.00,383.0,WeatherDisplay:10.37,2013-07-06 22:01:00,
2013-07-06 18:07:00,88.8,72.6,30.01,SW,223,8.5,10.4,59,0.00,SCT,,0.00,367.0,WeatherDisplay:10.37,2013-07-06 22:07:00,
2013-07-06 18:12:00,88.8,72.1,30.01,South,184,2.8,11.5,58,0.00,SCT,,0.00,353.0,WeatherDisplay:10.37,2013-07-06 22:12:00,
2013-07-06 18:17:00,88.6,71.9,30.01,WSW,242,6.9,13.8,58,0.00,SCT,,0.00,339.0,WeatherDisplay:10.37,2013-07-06 22:17:00,
2013-07-06 18:22:00,88.4,71.2,30.00,SW,215,9.8,16.1,57,0.00,SCT,,0.00,323.0,WeatherDisplay:10.37,2013-07-06 22:22:00,
2013-07-06 18:27:00,88.2,72.1,30.00,South,171,4.2,9.2,59,0.00,SCT,,0.00,308.0,WeatherDisplay:10.37,2013-07-06 22:27:00,
2013-07-06 18:32:00,88.0,71.4,30.00,SSE,166,7.1,13.5,58,0.00,SCT,,0.00,292.0,WeatherDisplay:10.37,2013-07-06 22:32:00,
2013-07-06 18:37:00,87.8,71.7,30.00,SSE,152,3.3,8.1,59,0.00,SCT,,0.00,278.0,WeatherDisplay:10.37,2013-07-06 22:37:00,
2013-07-06 18:42:00,87.8,71.7,30.00,South,182,5.7,13.8,59,0.00,SCT,,0.00,262.0,WeatherDisplay:10.37,2013-07-06 22:42:00,
2013-07-06 18:47:00,87.8,71.7,30.00,SSW,208,1.6,5.8,59,0.00,SCT,,0.00,246.0,WeatherDisplay:10.37,2013-07-06 22:47:00,
2013-07-06 18:53:00,88.0,71.9,30.00,SSE,157,6.3,9.2,59,0.00,SCT,,0.00,234.0,WeatherDisplay:10.37,2013-07-06 22:53:00,
2013-07-06 18:58:00,87.6,71.5,30.00,SSE,156,4.1,9.2,59,0.00,SCT,,0.00,216.0,WeatherDisplay:10.37,2013-07-06 22:58:00,
2013-07-06 19:03:00,87.4,71.8,30.00,SSW,207,5.6,10.5,60,0.00,FEW,,0.00,202.0,WeatherDisplay:10.37,2013-07-06 23:03:00,
2013-07-06 19:08:00,87.2,71.6,30.00,SSE,168,1.5,8.1,60,0.00,FEW,,0.00,186.0,WeatherDisplay:10.37,2013-07-06 23:08:00,
2013-07-06 19:13:00,87.0,71.4,30.00,South,173,1.9,10.4,60,0.00,FEW,,0.00,172.0,WeatherDisplay:10.37,2013-07-06 23:13:00,
2013-07-06 19:19:00,86.7,71.6,30.00,South,171,3.0,8.1,61,0.00,FEW,,0.00,151.0,WeatherDisplay:10.37,2013-07-06 23:19:00,
2013-07-06 19:24:00,86.5,70.5,30.00,SE,143,5.6,13.8,59,0.00,FEW,,0.00,135.0,WeatherDisplay:10.37,2013-07-06 23:24:00,
2013-07-06 19:29:00,86.3,70.8,30.00,SSE,166,5.8,8.1,60,0.00,FEW,,0.00,118.0,WeatherDisplay:10.37,2013-07-06 23:29:00,
2013-07-06 19:34:00,86.1,71.1,30.00,SSE,155,1.0,4.6,61,0.00,FEW,,0.00,100.0,WeatherDisplay:10.37,2013-07-06 23:34:00,
2013-07-06 19:39:00,85.9,70.9,30.00,South,188,3.4,10.5,61,0.00,FEW,,0.00,84.0,WeatherDisplay:10.37,2013-07-06 23:39:00,
2013-07-06 19:45:00,85.5,71.0,30.01,SE,145,5.6,10.5,62,0.00,FEW,,0.00,67.0,WeatherDisplay:10.37,2013-07-06 23:45:00,
2013-07-06 19:50:00,85.3,70.8,30.01,SSE,155,4.4,10.4,62,0.00,FEW,,0.00,58.0,WeatherDisplay:10.37,2013-07-06 23:50:00,
2013-07-06 19:56:00,85.1,71.1,30.01,SW,232,4.0,9.2,63,0.00,FEW,,0.00,47.0,WeatherDisplay:10.37,2013-07-06 23:56:00,
2013-07-06 20:01:00,84.9,70.9,30.00,South,180,5.3,6.0,63,0.00,FEW,,0.00,35.0,WeatherDisplay:10.37,2013-07-07 00:01:00,
2013-07-06 20:07:00,84.5,70.5,30.00,South,178,5.4,10.5,63,0.00,FEW,,0.00,28.0,WeatherDisplay:10.37,2013-07-07 00:07:00,
2013-07-06 20:12:00,84.3,70.8,30.00,South,184,3.1,13.8,64,0.00,FEW,,0.00,19.0,WeatherDisplay:10.37,2013-07-07 00:12:00,
2013-07-06 20:17:00,84.0,70.5,30.01,SSW,206,4.4,8.1,64,0.00,FEW,,0.00,11.0,WeatherDisplay:10.37,2013-07-07 00:17:00,
2013-07-06 20:22:00,83.8,70.8,30.01,SSE,148,3.4,6.0,65,0.00,FEW,,0.00,7.0,WeatherDisplay:10.37,2013-07-07 00:22:00,
2013-07-06 20:27:00,83.4,70.4,30.01,WSW,241,8.5,13.8,65,0.00,FEW,,0.00,5.0,WeatherDisplay:10.37,2013-07-07 00:27:00,
2013-07-06 20:32:00,83.2,70.7,30.01,South,189,4.2,6.0,66,0.00,FEW,,0.00,0.0,WeatherDisplay:10.37,2013-07-07 00:32:00,
2013-07-06 20:37:00,83.0,70.5,30.01,SSE,158,5.2,9.2,66,0.00,FEW,,0.00,0.0,WeatherDisplay:10.37,2013-07-07 00:37:00,
2013-07-06 20:55:00,82.0,70.4,30.01,South,183,0.0,5.8,68,0.00,FEW,,0.00,0.0,WeatherDisplay:10.37,2013-07-07 00:55:00,
2013-07-06 21:01:00,81.8,70.2,30.01,SSE,161,3.4,7.5,68,0.00,FEW,,0.00,0.0,WeatherDisplay:10.37,2013-07-07 01:01:00,
2013-07-06 21:06:00,81.8,70.2,30.01,South,189,2.5,4.6,68,0.00,FEW,,0.00,0.0,WeatherDisplay:10.37,2013-07-07 01:06:00,
2013-07-06 21:11:00,81.6,70.0,30.02,SSW,194,3.9,4.6,68,0.00,FEW,,0.00,0.0,WeatherDisplay:10.37,2013-07-07 01:11:00,
2013-07-06 21:16:00,81.4,70.2,30.02,SSW,204,0.8,1.5,69,0.00,FEW,,0.00,0.0,WeatherDisplay:10.37,2013-07-07 01:16:00,
2013-07-06 21:22:00,81.2,69.6,30.02,SW,222,7.7,10.4,68,0.00,FEW,,0.00,0.0,WeatherDisplay:10.37,2013-07-07 01:22:00,
2013-07-06 21:27:00,81.1,69.5,30.02,SE,144,1.3,9.2,68,0.00,FEW,,0.00,0.0,WeatherDisplay:10.37,2013-07-07 01:27:00,
2013-07-06 21:33:00,81.1,69.5,30.02,SSE,155,6.6,8.1,68,0.00,FEW,,0.00,0.0,WeatherDisplay:10.37,2013-07-07 01:33:00,
2013-07-06 21:39:00,81.1,69.5,30.03,SSE,162,5.7,9.2,68,0.00,FEW,,0.00,0.0,WeatherDisplay:10.37,2013-07-07 01:39:00,
2013-07-06 21:44:00,81.1,69.5,30.03,South,171,3.9,6.0,68,0.00,FEW,,0.00,0.0,WeatherDisplay:10.37,2013-07-07 01:44:00,
2013-07-06 21:51:00,80.9,69.3,30.03,SSE,157,3.1,5.8,68,0.00,FEW,,0.00,0.0,WeatherDisplay:10.37,2013-07-07 01:51:00,
2013-07-06 21:56:00,80.7,69.2,30.03,SSE,158,1.5,4.6,68,0.00,FEW,,0.00,0.0,WeatherDisplay:10.37,2013-07-07 01:56:00,
2013-07-06 22:01:00,80.3,68.8,30.03,SSE,157,0.2,1.2,68,0.00,FEW,,0.00,0.0,WeatherDisplay:10.37,2013-07-07 02:01:00,
2013-07-06 22:06:00,80.3,68.8,30.03,SSE,153,0.1,5.8,68,0.00,FEW,,0.00,0.0,WeatherDisplay:10.37,2013-07-07 02:06:00,
2013-07-06 22:13:00,79.8,68.7,30.04,SSE,153,0.0,0.0,69,0.00,FEW,,0.00,0.0,WeatherDisplay:10.37,2013-07-07 02:13:00,
2013-07-06 22:18:00,79.2,68.6,30.04,SSE,153,0.0,0.0,70,0.00,FEW,,0.00,0.0,WeatherDisplay:10.37,2013-07-07 02:18:00,
2013-07-06 22:23:00,78.6,68.4,30.04,SSE,153,0.0,0.0,71,0.00,FEW,,0.00,0.0,WeatherDisplay:10.37,2013-07-07 02:23:00,
2013-07-06 22:30:00,78.5,68.3,30.04,SSE,153,0.7,3.5,71,0.00,FEW,,0.00,0.0,WeatherDisplay:10.37,2013-07-07 02:30:00,
2013-07-06 22:35:00,78.6,68.4,30.04,SSE,156,0.3,5.8,71,0.00,FEW,,0.00,0.0,WeatherDisplay:10.37,2013-07-07 02:35:00,
2013-07-06 22:41:00,78.6,68.0,30.04,SSW,212,1.2,4.6,70,0.00,FEW,,0.00,0.0,WeatherDisplay:10.37,2013-07-07 02:41:00,
2013-07-06 22:46:00,78.8,68.2,30.04,SSW,213,0.1,3.5,70,0.00,FEW,,0.00,0.0,WeatherDisplay:10.37,2013-07-07 02:46:00,
2013-07-06 22:52:00,78.6,68.0,30.05,SSW,213,0.0,0.0,70,0.00,FEW,,0.00,0.0,WeatherDisplay:10.37,2013-07-07 02:52:00,
2013-07-06 22:57:00,78.5,67.9,30.05,SSW,213,0.0,0.0,70,0.00,FEW,,0.00,0.0,WeatherDisplay:10.37,2013-07-07 02:57:00,
2013-07-06 23:02:00,78.5,67.9,30.05,SSW,213,0.0,0.0,70,0.00,FEW,,0.00,0.0,WeatherDisplay:10.37,2013-07-07 03:02:00,
2013-07-06 23:07:00,78.3,68.1,30.05,SSW,213,0.1,1.5,71,0.00,FEW,,0.00,0.0,WeatherDisplay:10.37,2013-07-07 03:07:00,
2013-07-06 23:12:00,78.1,67.9,30.05,SSW,213,0.2,1.5,71,0.00,FEW,,0.00,0.0,WeatherDisplay:10.37,2013-07-07 03:12:00,
2013-07-06 23:17:00,77.9,67.7,30.05,SSW,213,0.0,0.0,71,0.00,FEW,,0.00,0.0,WeatherDisplay:10.37,2013-07-07 03:17:00,
2013-07-06 23:22:00,77.7,68.0,30.05,SSW,213,0.0,0.0,72,0.00,FEW,,0.00,0.0,WeatherDisplay:10.37,2013-07-07 03:22:00,
2013-07-06 23:27:00,77.4,67.7,30.05,SSW,208,0.0,4.6,72,0.00,FEW,,0.00,0.0,WeatherDisplay:10.37,2013-07-07 03:27:00,
2013-07-06 23:33:00,77.2,67.9,30.05,SSW,208,0.8,4.6,73,0.00,FEW,,0.00,0.0,WeatherDisplay:10.37,2013-07-07 03:33:00,
2013-07-06 23:39:00,77.2,67.9,30.05,SSW,207,0.0,3.5,73,0.00,FEW,,0.00,0.0,WeatherDisplay:10.37,2013-07-07 03:39:00,
2013-07-06 23:44:00,77.2,67.9,30.05,SSW,207,0.0,0.0,73,0.00,FEW,,0.00,0.0,WeatherDisplay:10.37,2013-07-07 03:44:00,
2013-07-06 23:49:00,77.0,68.1,30.05,SSW,208,0.0,0.0,74,0.00,FEW,,0.00,0.0,WeatherDisplay:10.37,2013-07-07 03:49:00,
2013-07-06 23:55:00,76.7,67.8,30.05,SSW,208,0.0,0.0,74,0.00,FEW,,0.00,0.0,WeatherDisplay:10.37,2013-07-07 03:55:00,